Morrisville, NC

7:58 PM EST on January 21, 2017 (GMT -0500)
Raleigh-Durham International Airport

Weather History for KRDU - January, 2013

Change the Weather History Date:

Monday, January 14, 2013

  Actual Average Record
Temperature  
Mean Temperature 64 °F 41 °F  
Max Temperature 69 °F 51 °F 79 °F (1932)
Min Temperature 58 °F 31 °F 6 °F (1912)
Degree Days  
Heating Degree Days 1 24  
Month to date heating degree days 236 342  
Since 1 July heating degree days 1413 1593  
Cooling Degree Days 0 0  
Month to date cooling degree days 0 0  
Year to date cooling degree days 0 0  
Growing Degree Days 14 (Base 50)    
Moisture  
Dew Point 59 °F    
Average Humidity 83    
Maximum Humidity 93    
Minimum Humidity 73    
Precipitation  
Precipitation T in 0.12 in 1.55 in (2005)
Month to date precipitation 0.67 1.58  
Year to date precipitation 0.67 1.58  
Snow  
Snow 0.00 in 0.10 in 5.00 in (1982)
Month to date snowfall 0.0 1.1  
Since 1 July snowfall 0.0 1.8  
Snow Depth 0.00 in    
Sea Level Pressure  
Sea Level Pressure 30.12 in    
Wind  
Wind Speed 6 mph (SW)    
Max Wind Speed 14 mph    
Max Gust Speed 18 mph    
Visibility 10 miles    
Events      
T = Trace of Precipitation, MM = Missing Value Source: NWS Daily Summary

Daily Weather History Graph

Daily Weather History Graph

Search for Another Location

Airport or City:

Trip Planner

Search our weather history database for the weather conditions in past years. The results will help you decide how hot, cold, wet, or windy it might be!

Date:

Astronomy

Jan. 14, 2013 Rise Set
Actual Time 7:24 AM EST 5:24 PM EST
Civil Twilight 6:57 AM EST 5:51 PM EST
Nautical Twilight 6:25 AM EST 6:23 PM EST
Astronomical Twilight 5:54 AM EST 6:54 PM EST
Moon 9:05 AM EST (1/14) 8:58 PM EST (1/14)
Length of Visible Light 10h 54m
Length of Day
9h 59m
Waxing Crescent, 11% of the Moon is Illuminated
Jan 14
Waxing Crescent
Jan 18
First Quarter
Jan 26
Full
Feb 3
Last Quarter
Feb 10
New

Hourly Weather History & Observations

Time (EST) Temp. Dew Point Humidity Pressure Visibility Wind Dir Wind Speed Gust Speed Precip Events Conditions
12:51 AM 62.6 °F 57.2 °F 82% 30.11 in 10.0 mi SW 9.2 mph - N/A   Mostly Cloudy
1:51 AM 62.1 °F 57.0 °F 84% 30.11 in 10.0 mi SSW 9.2 mph - N/A   Mostly Cloudy
2:51 AM 62.1 °F 55.9 °F 80% 30.11 in 10.0 mi SW 8.1 mph - N/A   Mostly Cloudy
3:51 AM 60.1 °F 55.0 °F 83% 30.11 in 10.0 mi SSW 6.9 mph - N/A   Mostly Cloudy
4:51 AM 61.0 °F 55.9 °F 83% 30.10 in 10.0 mi SSW 6.9 mph - N/A   Mostly Cloudy
5:51 AM 61.0 °F 55.0 °F 81% 30.10 in 10.0 mi SSW 8.1 mph - N/A   Mostly Cloudy
6:51 AM 62.1 °F 55.0 °F 78% 30.11 in 10.0 mi SW 9.2 mph - N/A   Mostly Cloudy
7:51 AM 61.0 °F 55.0 °F 81% 30.13 in 10.0 mi SSW 8.1 mph - N/A   Mostly Cloudy
8:51 AM 62.1 °F 55.0 °F 78% 30.14 in 10.0 mi SSW 6.9 mph - N/A   Mostly Cloudy
9:51 AM 63.0 °F 55.9 °F 78% 30.16 in 10.0 mi SW 6.9 mph - N/A   Mostly Cloudy
10:51 AM 66.0 °F 57.0 °F 73% 30.14 in 10.0 mi SW 10.4 mph - N/A   Mostly Cloudy
11:51 AM 66.0 °F 57.9 °F 75% 30.12 in 10.0 mi WSW 11.5 mph 18.4 mph N/A   Overcast
12:51 PM 66.9 °F 59.0 °F 76% 30.10 in 10.0 mi SW 8.1 mph - N/A   Overcast
1:51 PM 68.0 °F 59.0 °F 73% 30.09 in 10.0 mi WSW 3.5 mph - N/A   Overcast
2:22 PM 68.0 °F 60.8 °F 78% 30.10 in 10.0 mi WSW 4.6 mph - N/A   Overcast
2:51 PM 68.0 °F 60.1 °F 76% 30.10 in 10.0 mi WSW 3.5 mph - 0.00 in   Overcast
3:51 PM 68.0 °F 60.1 °F 76% 30.11 in 10.0 mi SSW 4.6 mph - N/A   Overcast
4:51 PM 66.9 °F 61.0 °F 81% 30.12 in 10.0 mi Calm Calm - N/A   Overcast
5:51 PM 66.9 °F 61.0 °F 81% 30.13 in 10.0 mi Calm Calm - N/A   Overcast
6:51 PM 64.0 °F 62.1 °F 93% 30.14 in 10.0 mi Calm Calm - 0.00 in   Overcast
7:51 PM 64.0 °F 62.1 °F 93% 30.12 in 10.0 mi ESE 3.5 mph - N/A   Overcast
8:51 PM 64.9 °F 61.0 °F 87% 30.11 in 10.0 mi SE 3.5 mph - N/A   Overcast
9:51 PM 66.0 °F 61.0 °F 84% 30.11 in 10.0 mi South 5.8 mph - N/A   Mostly Cloudy
10:51 PM 66.0 °F 60.1 °F 81% 30.11 in 10.0 mi South 4.6 mph - N/A   Mostly Cloudy
11:51 PM 63.0 °F 60.1 °F 90% 30.14 in 10.0 mi North 9.2 mph - N/A   Overcast
11:55 PM 60.8 °F 59.0 °F 94% 30.15 in 10.0 mi NNE 10.4 mph - N/A   Overcast